Millville, NJ

4:57 PM EST on December 09, 2019 (GMT -0500)
Millville Municipal

Weather History for KMIV - October, 2019

Change the Weather History Date:

Wednesday, October 16, 2019

  Actual Average Record
Temperature  
Mean Temperature 58 °F -  
Max Temperature 69 °F 68 °F 84 °F (2008)
Min Temperature 46 °F 45 °F 30 °F (2006)
Degree Days  
Heating Degree Days 8    
Growing Degree Days 8 (Base 50)    
Moisture  
Dew Point 53 °F    
Average Humidity 89    
Maximum Humidity 97    
Minimum Humidity 59    
Precipitation  
Precipitation 1.71 in - - ()
Sea Level Pressure  
Sea Level Pressure 29.69 in    
Wind  
Wind Speed 5 mph (SSE)    
Max Wind Speed 28 mph    
Max Gust Speed 39 mph    
Visibility 5 miles    
Events Fog , Rain    
Averages and records for this station are not official NWS values.
T = Trace of Precipitation, MM = Missing Value Source: NWS Daily Summary

Daily Weather History Graph

Daily Weather History Graph

Search for Another Location

Airport or City:

Astronomy

Oct. 16, 2019 Rise Set
Actual Time 7:10 AM EDT 6:20 PM EDT
Civil Twilight 6:43 AM EDT 6:47 PM EDT
Nautical Twilight 6:12 AM EDT 7:18 PM EDT
Astronomical Twilight 5:41 AM EDT 7:49 PM EDT
Moon 8:12 PM EDT (10/16) 9:38 AM EDT (10/16)
Length of Visible Light 12h 03m
Length of Day
11h 09m
Waning Gibbous, 93% of the Moon is Illuminated
Oct 16
Waning Gibbous
Oct 21
Last Quarter
Oct 27
New
Nov 4
First Quarter
Nov 12
Full

Hourly Weather History & Observations

Time (EDT) Temp. Dew Point Humidity Pressure Visibility Wind Dir Wind Speed Gust Speed Precip Events Conditions
12:54 AM 46.9 °F 44.1 °F 90% 30.05 in 9.0 mi Calm Calm - N/A   Clear
1:54 AM 48.0 °F 45.0 °F 89% 30.03 in 10.0 mi Calm Calm - N/A   Clear
2:54 AM 48.0 °F 46.0 °F 93% 30.00 in 8.0 mi Calm Calm - N/A   Clear
3:28 AM 48.9 °F 46.9 °F 93% 29.99 in 1.8 mi Calm Calm - N/A   Clear
3:38 AM 48.9 °F 46.9 °F 93% 29.99 in 0.5 mi Calm Calm - N/A Fog Fog
3:49 AM 48.2 °F 46.4 °F 93% 29.98 in 1.2 mi Calm Calm - N/A   Clear
3:54 AM 48.0 °F 46.9 °F 96% 29.98 in 0.8 mi Calm Calm - N/A   Clear
4:31 AM 50.0 °F 48.0 °F 93% 29.97 in 0.8 mi Calm Calm - N/A   Clear
4:44 AM 46.9 °F 46.0 °F 97% 29.97 in 0.2 mi Calm Calm - N/A Fog Fog
4:48 AM 48.2 °F 46.4 °F 93% 29.97 in 0.5 mi Calm Calm - N/A Fog Fog
4:54 AM 48.0 °F 46.0 °F 93% 29.96 in 0.5 mi Calm Calm - N/A Fog Fog
5:00 AM 48.0 °F 46.0 °F 93% 29.96 in 1.5 mi Calm Calm - N/A   Scattered Clouds
5:03 AM 48.0 °F 46.0 °F 93% 29.96 in 3.0 mi Calm Calm - N/A   Partly Cloudy
5:20 AM 48.9 °F 46.0 °F 90% 29.96 in 1.5 mi Calm Calm - N/A   Clear
5:29 AM 46.9 °F 46.0 °F 97% 29.96 in 0.5 mi Calm Calm - N/A Fog Fog
5:35 AM 48.0 °F 46.0 °F 93% 29.96 in 1.2 mi Calm Calm - N/A   Partly Cloudy
5:43 AM 48.0 °F 46.0 °F 93% 29.95 in 7.0 mi Calm Calm - N/A   Clear
5:54 AM 48.0 °F 46.0 °F 93% 29.94 in 2.5 mi Calm Calm - N/A   Clear
6:01 AM 48.0 °F 46.0 °F 93% 29.94 in 6.0 mi Calm Calm - N/A   Clear
6:47 AM 51.1 °F 48.9 °F 92% 29.93 in 2.0 mi ESE 3.5 mph - N/A   Clear
6:54 AM 50.0 °F 48.9 °F 96% 29.92 in 4.0 mi Calm Calm - N/A   Clear
7:05 AM 53.1 °F 52.0 °F 96% 29.92 in 1.8 mi SE 3.5 mph - N/A   Clear
7:15 AM 52.0 °F 51.1 °F 97% 29.92 in 3.0 mi SE 3.5 mph - N/A   Clear
7:20 AM 52.0 °F 51.1 °F 97% 29.92 in 1.5 mi Calm Calm - N/A   Clear
7:36 AM 55.9 °F 54.0 °F 93% 29.90 in 3.0 mi ESE 4.6 mph - N/A   Clear
7:54 AM 57.9 °F 55.9 °F 93% 29.90 in 6.0 mi SE 5.8 mph - N/A   Clear
8:54 AM 60.1 °F 57.9 °F 93% 29.89 in 8.0 mi ESE 4.6 mph - N/A   Clear
9:54 AM 62.1 °F 60.1 °F 93% 29.85 in 10.0 mi ESE 5.8 mph - N/A   Partly Cloudy
10:54 AM 64.9 °F 61.0 °F 87% 29.81 in 10.0 mi SE 8.1 mph - N/A   Mostly Cloudy
11:54 AM 66.9 °F 61.0 °F 81% 29.75 in 10.0 mi SE 10.4 mph - N/A   Overcast
12:54 PM 66.9 °F 60.1 °F 79% 29.67 in 10.0 mi SE 11.5 mph - 0.01 in   Overcast
1:54 PM 69.1 °F 59.0 °F 70% 29.61 in 10.0 mi SE 16.1 mph 24.2 mph N/A   Overcast
2:54 PM 66.0 °F 62.1 °F 87% 29.54 in 10.0 mi ESE 16.1 mph 27.6 mph 0.02 in Rain Light Rain
3:20 PM 64.9 °F 62.1 °F 90% 29.52 in 1.8 mi SE 13.8 mph 24.2 mph 0.09 in Rain Heavy Rain
3:28 PM 64.9 °F 62.1 °F 90% 29.50 in 1.0 mi SE 12.7 mph 21.9 mph 0.23 in Rain Heavy Rain
3:38 PM 64.9 °F 62.1 °F 90% 29.50 in 1.0 mi SE 18.4 mph 28.8 mph 0.39 in Rain Heavy Rain
3:47 PM 64.0 °F 61.0 °F 90% 29.52 in 1.0 mi Variable 5.8 mph 28.8 mph 0.51 in Rain Heavy Rain
3:50 PM 64.4 °F 60.8 °F 88% 29.51 in 0.8 mi Variable 5.8 mph - 0.55 in Rain Heavy Rain
3:54 PM 63.0 °F 61.0 °F 93% 29.50 in 0.8 mi SSE 9.2 mph - 0.61 in Rain Heavy Rain
4:26 PM 63.0 °F 61.0 °F 93% 29.47 in 0.8 mi SE 8.1 mph 17.3 mph 0.53 in Rain Heavy Rain
4:40 PM 63.0 °F 61.0 °F 93% 29.44 in 1.2 mi SE 13.8 mph 20.7 mph 0.73 in Rain Heavy Rain
4:54 PM 63.0 °F 61.0 °F 93% 29.41 in 1.5 mi SSE 10.4 mph 19.6 mph 0.85 in Rain Heavy Rain
5:03 PM 63.0 °F 61.0 °F 93% 29.39 in 2.5 mi SE 12.7 mph 18.4 mph 0.04 in Rain Rain
5:11 PM 63.0 °F 61.0 °F 93% 29.39 in 4.0 mi SE 15.0 mph 21.9 mph 0.06 in Rain Rain
5:54 PM 64.0 °F 62.1 °F 93% 29.35 in 7.0 mi SSE 11.5 mph 19.6 mph 0.14 in Rain Light Rain
6:07 PM 64.0 °F 62.1 °F 93% 29.35 in 1.8 mi Variable 6.9 mph - 0.03 in Rain Light Rain
6:14 PM 64.0 °F 62.1 °F 93% 29.35 in 2.5 mi SSW 8.1 mph - 0.04 in Rain Light Rain
6:21 PM 64.0 °F 62.1 °F 93% 29.33 in 10.0 mi SW 11.5 mph 17.3 mph 0.04 in   Overcast
6:35 PM 62.1 °F 60.1 °F 93% 29.34 in 2.0 mi West 26.5 mph 35.7 mph 0.08 in Rain Light Rain
6:41 PM 61.0 °F 57.9 °F 90% 29.34 in 6.0 mi West 21.9 mph 35.7 mph 0.08 in Rain Light Rain
6:54 PM 60.1 °F 57.0 °F 90% 29.34 in 10.0 mi West 19.6 mph 33.4 mph 0.08 in   Overcast
7:19 PM 60.1 °F 57.0 °F 90% 29.35 in 10.0 mi WNW 23.0 mph 31.1 mph N/A   Overcast
7:51 PM 57.2 °F 51.8 °F 82% 29.36 in 10.0 mi WNW 27.6 mph 39.1 mph N/A   Mostly Cloudy
7:54 PM 57.9 °F 52.0 °F 81% 29.36 in 10.0 mi WNW 26.5 mph 39.1 mph N/A   Mostly Cloudy
8:26 PM 55.9 °F 48.9 °F 77% 29.38 in 10.0 mi WNW 27.6 mph 39.1 mph N/A   Overcast
8:54 PM 55.9 °F 48.0 °F 75% 29.39 in 10.0 mi WNW 25.3 mph 34.5 mph N/A   Scattered Clouds
9:54 PM 54.0 °F 42.1 °F 64% 29.42 in 10.0 mi WNW 23.0 mph 34.5 mph N/A   Clear
10:54 PM 53.1 °F 39.0 °F 59% 29.43 in 10.0 mi WNW 20.7 mph 34.5 mph N/A   Clear
11:54 PM 52.0 °F 37.9 °F 59% 29.44 in 10.0 mi WNW 23.0 mph 33.4 mph N/A   Clear